Printer-friendly version

IAU Minor Planet Center

Minor Planet Center

MPEC 2007-F24 : 2007 EE126

The following Minor Planet Electronic Circular may be linked-to from your own Web pages, but must not otherwise be redistributed electronically.


Read MPEC 2007-F23 Read MPEC 2007-F25


M.P.E.C. 2007-F24                                Issued 2007 Mar. 17, 19:06 UT

     The Minor Planet Electronic Circulars contain information on unusual
         minor planets and routine data on comets.  They are published
   on behalf of Commission 20 of the International Astronomical Union by the
          Minor Planet Center, Smithsonian Astrophysical Observatory,
                          Cambridge, MA 02138, U.S.A.

             Prepared using the Tamkin Foundation Computer Network

                              MPC@CFA.HARVARD.EDU
          URL http://cfa-www.harvard.edu/iau/mpc.html  ISSN 1523-6714

                                  2007 EE126

Observations:
     K07EC6E* C2007 03 15.30699 11 31 54.87 +11 49 52.3          21.5 V EF024G96
     K07EC6E  C2007 03 15.31411 11 31 51.16 +11 50 07.2          20.4 V EF024G96
     K07EC6E  C2007 03 15.32129 11 31 47.35 +11 50 21.5          20.1 V EF024G96
     K07EC6E  C2007 03 15.32836 11 31 43.64 +11 50 37.5          20.4 V EF024G96
     K07EC6E  C2007 03 15.49381 11 30 21.27 +11 56 03.5          20.7 V EF024G96
     K07EC6E  C2007 03 15.49453 11 30 21.02 +11 56 02.6          20.6 V EF024G96
     K07EC6E  C2007 03 15.49524 11 30 20.66 +11 56 05.3          21.9 V EF024G96
     K07EC6E  C2007 03 15.49596 11 30 20.37 +11 56 05.6          20.4 V EF024G96
     K07EC6E  C2007 03 16.29871 11 25 16.53 +12 18 18.3          21.5 V EF024G96
     K07EC6E  C2007 03 16.29943 11 25 16.21 +12 18 19.3          22.0 V EF024G96
     K07EC6E  C2007 03 16.30013 11 25 15.96 +12 18 20.1          21.3 V EF024G96
     K07EC6E  C2007 03 16.30084 11 25 15.70 +12 18 21.1          21.4 V EF024G96

Observer details:
G96 Mt. Lemmon Survey.  Observer A. R. Gibbs.  Measurers E. C. Beshore,
    E. J. Christensen, G. J. Garradd, A. R. Gibbs, A. D. Grauer, R. E. Hill,
    R. A. Kowalski, S. M. Larson, R. H. McNaught.  1.5-m reflector + CCD.

Orbital elements:
2007 EE126                                               Earth MOID = 0.0015 AU
Epoch 2007 Apr. 10.0 TT = JDT 2454200.5                 MPC
M  10.81509              (2000.0)            P               Q
n   0.15347743     Peri.  249.20951     +0.51234328     -0.85838897
a   3.4549335      Node   169.85066     +0.83247214     +0.48900270
e   0.8981487      Incl.    8.46422     +0.21093719     +0.15506366
P   6.42           H   25.6           G   0.15           U   9
Residuals in seconds of arc
070315 G96  0.4-  0.3+    070315 G96  0.9-  1.3+    070316 G96  0.6+  0.0
070315 G96  0.4+  0.0     070315 G96  0.4+  0.9-    070316 G96  0.2-  0.0
070315 G96  0.1+  0.9-    070315 G96  0.0   0.5+    070316 G96  0.2-  0.1-
070315 G96  0.1+  0.2+    070315 G96  0.6+  0.6-    070316 G96  0.2-  0.1-

Ephemeris:
2007 EE126               a,e,i = 3.45, 0.90, 8                   q = 0.3519
Date    TT    R. A. (2000) Decl.     Delta      r     Elong.  Phase     V
2007 03 11    16 03.59   -11 38.2    0.0130   0.997   108.5    70.8    18.6
2007 03 12    13 03.20   +04 15.2    0.0235   1.015   155.9    23.5    18.6
2007 03 13    12 09.43   +08 55.6    0.0394   1.032   168.7    10.8    19.3
2007 03 14    11 46.81   +10 43.7    0.0563   1.050   171.5     8.1    20.0
2007 03 15    11 34.60   +11 38.8    0.0735   1.067   170.7     8.6    20.7
2007 03 16    11 27.01   +12 11.5    0.0910   1.084   169.2     9.9    21.2
2007 03 17    11 21.86   +12 32.9    0.109    1.101   167.7    11.1    21.7
2007 03 18    11 18.15   +12 47.7    0.126    1.118   166.2    12.3    22.1
2007 03 19    11 15.37   +12 58.3    0.144    1.135   164.8    13.3    22.4
2007 03 20    11 13.21   +13 06.0    0.162    1.152   163.5    14.2    22.8
2007 03 21    11 11.52   +13 11.8    0.180    1.168   162.2    15.1    23.0

Kyle E. Smalley              (C) Copyright 2007 MPC           M.P.E.C. 2007-F24

Read MPEC 2007-F23 Read MPEC 2007-F25


Our Web policy. Index to the CBAT/MPC/ICQ pages.


Valid HTML 4.01!